Location: Jaite
(41.2884°N, 81.5737°W)
Time: 11:26:53
(UTC+00:00)

BlueWalker 3 - Pass Details

Date: 13 October 2024
Orbit: 470 x 482 km, 53.2° (Epoch: 05 November)

Event Time Altitude Azimuth Distance (km) Brightness Sun altitude
Exits shadow 10:49:51 - 318° (NW) 2,024 4.6 -9.5°
Reaches altitude 10° 10:51:26 10° 336° (NNW) 1,635 4.3 -9.2°
Maximum altitude 10:53:16 13° 6° (N) 1,446 4.3 -8.9°
Drops below altitude 10° 10:55:06 10° 36° (NE) 1,635 5.0 -8.5°
Sets 10:58:14 0° 65° (ENE) 2,514 6.7 -8.0°
